TimeGMT,TemperatureF,Dew PointF,Humidity,Sea Level PressureIn,VisibilityMPH,Wind Direction,Wind SpeedMPH,Gust SpeedMPH,PrecipitationIn,Events,Conditions,WindDirDegrees,DateUTC
12:00 AM,36,35,95,30.45,0,North,3.5,,,Fog,Fog,0,2014-03-14 00:00:00
12:50 AM,35.6,33.8,93,30.42,0.9,NE,2.3,-,N/A,,Unknown,50,2014-03-14 00:50:00
1:00 AM,35,34,96,30.45,1,NE,2.3,,,Fog,Fog,50,2014-03-14 01:00:00
1:50 AM,35.6,33.8,93,30.42,0.7,South,1.2,-,N/A,,Unknown,180,2014-03-14 01:50:00
2:00 AM,35,34,93,30.43,1,South,1.2,,,Fog,Fog,180,2014-03-14 02:00:00
2:50 AM,33.8,32.0,93,30.39,0.8,South,3.5,-,N/A,,Unknown,170,2014-03-14 02:50:00
3:00 AM,34,33,93,30.42,1,South,3.5,,,Fog,Fog,170,2014-03-14 03:00:00
3:50 AM,33.8,33.8,100,30.39,0.0,East,2.3,-,N/A,Snow,Light Snow Showers,100,2014-03-14 03:50:00
4:00 AM,33,33,99,30.40,0,East,2.3,,,Snow,Light Snow Showers,100,2014-03-14 04:00:00
4:50 AM,32.0,32.0,100,30.36,0.0,SSE,2.3,-,N/A,Snow,Snow Grains,150,2014-03-14 04:50:00
5:00 AM,32,32,99,30.39,0,SSE,2.3,,,Snow,Snow Grains,150,2014-03-14 05:00:00
5:50 AM,30.2,30.2,100,30.39,0.1,SSE,3.5,-,N/A,Fog,Fog,160,2014-03-14 05:50:00
6:00 AM,30,30,99,30.40,0,SSE,3.5,,,Fog,Partial Fog,160,2014-03-14 06:00:00
6:50 AM,33.8,33.8,100,30.36,0.0,SSE,5.8,-,N/A,Fog,Fog,150,2014-03-14 06:50:00
7:00 AM,33,33,99,30.39,0,SSE,5.8,,,Fog,Partial Fog,150,2014-03-14 07:00:00
7:50 AM,33.8,33.8,100,30.36,0.0,South,3.5,-,N/A,Fog,Fog,180,2014-03-14 07:50:00
8:00 AM,35,34,96,30.39,0,South,3.5,,,Fog,Partial Fog,180,2014-03-14 08:00:00
8:50 AM,35.6,35.6,100,30.36,0.0,South,5.8,-,N/A,Fog,Fog,180,2014-03-14 08:50:00
9:00 AM,36,36,100,30.38,0,South,5.8,,,Fog,Partial Fog,180,2014-03-14 09:00:00
9:50 AM,39.2,39.2,100,30.36,0.0,South,5.8,-,N/A,Fog,Fog,180,2014-03-14 09:50:00
10:00 AM,38,38,100,30.37,0,South,5.8,,,Fog,Partial Fog,180,2014-03-14 10:00:00
10:50 AM,42.8,42.8,100,30.33,0.7,South,8.1,-,N/A,,Mostly Cloudy,190,2014-03-14 10:50:00
11:00 AM,42,42,99,30.35,1,South,8.1,,,Fog,Light Fog,190,2014-03-14 11:00:00
11:16 AM,44.6,42.8,93,30.33,1.1,SSW,9.2,-,N/A,,Haze,210,2014-03-14 11:16:00
11:50 AM,48.2,44.6,87,30.30,1.9,SSW,10.4,-,N/A,,Haze,210,2014-03-14 11:50:00
12:00 PM,49,44,78,30.32,2,SSW,10.4,,,,Haze,210,2014-03-14 12:00:00
12:50 PM,53.6,44.6,72,30.27,2.5,SW,12.7,-,N/A,,Haze,230,2014-03-14 12:50:00
1:00 PM,53,45,65,30.29,2,SW,12.7,,,,Haze,230,2014-03-14 13:00:00
1:19 PM,55.4,42.8,63,30.24,3.1,SW,16.1,-,N/A,,Haze,230,2014-03-14 13:19:00
1:50 PM,57.2,44.6,63,30.24,3.1,SW,15.0,-,N/A,,Haze,220,2014-03-14 13:50:00
2:00 PM,57,45,53,30.25,3,SW,15.0,,,,Haze,220,2014-03-14 14:00:00
2:50 PM,59.0,44.6,59,30.21,3.1,SW,17.3,-,N/A,,Haze,230,2014-03-14 14:50:00
3:00 PM,59,44,46,30.22,3,SW,17.3,,,,Haze,230,2014-03-14 15:00:00
3:50 PM,59.0,44.6,59,30.18,3.1,WSW,13.8,-,N/A,,Haze,240,2014-03-14 15:50:00
4:00 PM,59,45,49,30.20,3,WSW,13.8,,,,Haze,240,2014-03-14 16:00:00
4:50 PM,57.2,42.8,59,30.18,3.1,West,12.7,-,N/A,,Haze,260,2014-03-14 16:50:00
5:00 PM,56,44,53,30.21,3,West,12.7,,,,Haze,260,2014-03-14 17:00:00
5:50 PM,53.6,44.6,72,30.21,4.3,West,9.2,-,N/A,,Haze,260,2014-03-14 17:50:00
6:00 PM,53,44,64,30.22,4,West,9.2,,,,Light Haze,260,2014-03-14 18:00:00
6:50 PM,53.6,44.6,72,30.18,4.3,West,11.5,-,N/A,,Haze,260,2014-03-14 18:50:00
7:00 PM,54,44,59,30.20,4,West,11.5,,,,Light Haze,260,2014-03-14 19:00:00
7:50 PM,50.0,42.8,76,30.18,3.7,West,17.3,-,N/A,,Haze,260,2014-03-14 19:50:00
8:00 PM,50,42,65,30.20,4,West,17.3,,,,Light Haze,260,2014-03-14 20:00:00
8:50 PM,48.2,42.8,82,30.21,3.7,West,10.4,-,N/A,,Haze,260,2014-03-14 20:50:00
9:00 PM,47,42,77,30.22,4,West,10.4,,,,Light Haze,260,2014-03-14 21:00:00
9:50 PM,46.4,41.0,81,30.21,5.0,West,10.4,-,N/A,,Haze,260,2014-03-14 21:50:00
10:00 PM,46,42,80,30.24,5,West,10.4,,,,Light Haze,260,2014-03-14 22:00:00
10:50 PM,44.6,41.0,87,30.21,5.6,WSW,11.5,-,N/A,,Haze,240,2014-03-14 22:50:00
11:00 PM,45,42,83,30.22,6,WSW,11.5,,,,Light Haze,240,2014-03-14 23:00:00
11:50 PM,46.4,42.8,87,30.18,5.0,WSW,10.4,-,N/A,,Haze,250,2014-03-14 23:50:00